sat.trackr.live / text

‹ back to catalog

AFR-1

NORAD 56964 · 2023-084AJ

PAYLOAD ACTIVE UNKNOWN

§ Identity

Operator
Country
IND
Launch date
2023-06-12
Launch site
AFWTR
Launch vehicle
Mass (kg)
RCS (m²)

External: N2YO · Heavens-Above · Gunter

§ Orbital elements

Epoch: 2026-05-25T04:30:20.132928Z

Period
94.22 min
Inclination
97.6239°
Eccentricity
0.0011813
Mean motion
15.28325950 rev/d
Perigee alt
472.7 km
Apogee alt
488.9 km
Semi-major
6,859.0 km
B*
1.6471e-4
RAAN
281.3338°
Arg perigee
64.6073°
Mean anomaly
295.6387°
Rev number
16,371

§ Raw data

AFR-11 56964U 23084AJ  26145.18773302  .00004473  00000+0  16471-3 0  99952 56964  97.6239 281.3338 0011813  64.6073 295.6387 15.28325950163714

JSON: /api/v1/satellites/56964 · /tle

For live sub-satellite position, see the globe view (requires WebGL).

§ Visibility from observer

Set your observer location to see the next 7 days of passes ≥ 10°. The values pass through the URL so the page stays shareable.

No JS? Fill the form by hand. The geolocation button needs JavaScript.

§ Radio — SatNOGS DB

ModeDescriptionDownlinkUplink
FM Mode S - Transmitter 2.245 GHz
FM Mode U - Transmitter 436.630 MHz
FM Mode X - Transmitter 8.210 GHz

3 transmitters · refreshed weekly from db.satnogs.org